Location: *
(50.3440°N, 18.6237°E)
Time: 18:32:53
(UTC+00:00)

H-2A R/B - Pass Details

Date: 30 November 2020
Orbit: 733 x 836 km, 98.2° (Epoch: 23 January)

Event Time Altitude Azimuth Distance (km) Brightness Sun altitude
Exits shadow 18:06:40 46° 225° (SW) 1,062 2.9 -31.2°
Maximum altitude 18:07:36 52° 260° (W) 981 2.7 -31.3°
Drops below altitude 10° 18:12:37 10° 337° (NNW) 2,328 4.8 -32.1°
Sets 18:14:59 0° 342° (NNW) 3,244 5.5 -32.5°
